Back to catalog

USA 76 DEB

LostHEO
NORAD 44302·DEBRIS·🇺🇸 United States

Launched Nov 8, 1991 from Vandenberg Space Force Base

Loading…

Next Passes (next 24 hours)

TLE

StaleSource: Space-Track

Epoch: Sep 23, 2019, 04:33 UTC

1 44302U 91076P   19266.18989757  .00000013  00000-0  00000+0 0  9997
2 44302  63.3233 155.7607 3364683 269.7485  52.4686  5.52417745  6401

Track USA 76 DEB in real time with AllMySat

Download on the App Store